When you browse on this site, cookies collect data to enhance your experience and personalize the content and advertising you see.
Visit our Privacy Policy to learn more. By continuing to use the site, you agree to this use of cookies and data.
  • In Belgium
  • List of Countries
  • For 7 days
  • Water Temperature
  • Satellite Maps
  • Weather Map
  • Weather Widgets
  • user-avatar
    Login

    Hourly Weather Antwerp

    Today, 17 December, Monday

    Time Temperature Precipitation Wind Pressure Humidity
    00:00 +1°C° 0 mm 4 mps 758 mmHg 95%
    01:00 +1°C° 0 mm 4 mps 758 mmHg 94%
    02:00 +2°C° 0 mm 5 mps 758 mmHg 94%
    03:00 +2°C° 0 mm 5 mps 758 mmHg 94%
    04:00 +2°C° 0 mm 5 mps 759 mmHg 94%
    05:00 +2°C° 0 mm 5 mps 759 mmHg 94%
    06:00 +3°C° 0 mm 5 mps 760 mmHg 94%
    07:00 +3°C° 0 mm 5 mps 760 mmHg 93%
    08:00 +3°C° 0 mm 5 mps 761 mmHg 91%
    09:00 +3°C° 0 mm 5 mps 761 mmHg 90%
    10:00 +5°C° 0 mm 5 mps 762 mmHg 87%
    11:00 +6°C° 0 mm 5 mps 763 mmHg 84%
    12:00 +6°C° 0 mm 5 mps 763 mmHg 81%
    13:00 +6°C° 0 mm 5 mps 764 mmHg 83%
    14:00 +6°C° 0 mm 5 mps 764 mmHg 85%
    15:00 +6°C° 0 mm 4 mps 764 mmHg 88%
    16:00 +5°C° 0 mm 4 mps 765 mmHg 89%
    17:00 +5°C° 0 mm 4 mps 765 mmHg 91%
    18:00 +4°C° 0 mm 4 mps 766 mmHg 93%
    19:00 +4°C° 0 mm 4 mps 766 mmHg 93%
    20:00 +4°C° 0 mm 4 mps 767 mmHg 94%
    21:00 +4°C° 0 mm 4 mps 767 mmHg 94%
    22:00 +3°C° 0 mm 4 mps 767 mmHg 93%
    23:00 +2°C° 0 mm 5 mps 767 mmHg 93%

    Tomorrow, 18 December, Tuesday

    Time Temperature Precipitation Wind Pressure Humidity
    00:00 +2°C° 0 mm 5 mps 767 mmHg 93%
    01:00 +2°C° 0 mm 5 mps 767 mmHg 93%
    02:00 +2°C° 0 mm 5 mps 766 mmHg 93%
    03:00 +2°C° 0 mm 5 mps 766 mmHg 94%
    04:00 +2°C° 0 mm 5 mps 766 mmHg 94%
    05:00 +2°C° 0 mm 5 mps 765 mmHg 94%
    06:00 +3°C° 0 mm 5 mps 765 mmHg 94%
    07:00 +3°C° 0 mm 5 mps 765 mmHg 93%
    08:00 +3°C° 0 mm 5 mps 765 mmHg 92%
    09:00 +5°C° 0 mm 5 mps 765 mmHg 91%
    10:00 +4°C° 0 mm 6 mps 764 mmHg 86%
    11:00 +5°C° 0 mm 6 mps 763 mmHg 82%
    12:00 +7°C° 0 mm 6 mps 763 mmHg 77%
    13:00 +7°C° 0 mm 6 mps 762 mmHg 75%
    14:00 +5°C° 0 mm 6 mps 761 mmHg 74%
    15:00 +5°C° 0 mm 6 mps 761 mmHg 72%
    16:00 +4°C° 0 mm 6 mps 760 mmHg 70%
    17:00 +4°C° 0 mm 7 mps 760 mmHg 68%
    18:00 +3°C° 0 mm 7 mps 759 mmHg 66%
    19:00 +4°C° 0 mm 7 mps 759 mmHg 65%
    20:00 +4°C° 0 mm 7 mps 758 mmHg 64%
    21:00 +4°C° 0 mm 7 mps 758 mmHg 63%
    22:00 +4°C° 0 mm 7 mps 757 mmHg 65%
    23:00 +5°C° 0 mm 7 mps 757 mmHg 67%

    Day after tomorrow, 19 December, Wednesday

    Time Temperature Precipitation Wind Pressure Humidity
    00:00 +5°C° 0 mm 7 mps 757 mmHg 70%
    01:00 +5°C° 0.6 mm 6 mps 757 mmHg 75%
    02:00 +5°C° 0.6 mm 6 mps 757 mmHg 81%
    03:00 +5°C° 0.6 mm 6 mps 757 mmHg 87%
    04:00 +5°C° 0.2 mm 6 mps 757 mmHg 88%
    05:00 +6°C° 0.2 mm 5 mps 757 mmHg 90%
    06:00 +6°C° 0.2 mm 5 mps 757 mmHg 92%
    07:00 +6°C° 0 mm 5 mps 758 mmHg 92%
    08:00 +6°C° 0 mm 5 mps 758 mmHg 92%
    09:00 +6°C° 0 mm 5 mps 758 mmHg 92%
    10:00 +7°C° 0 mm 5 mps 758 mmHg 89%
    11:00 +7°C° 0 mm 5 mps 758 mmHg 85%
    12:00 +8°C° 0 mm 6 mps 757 mmHg 82%
    13:00 +8°C° 0 mm 5 mps 757 mmHg 82%
    14:00 +8°C° 0 mm 5 mps 757 mmHg 83%
    15:00 +8°C° 0 mm 5 mps 757 mmHg 84%
    16:00 +7°C° 0 mm 5 mps 757 mmHg 84%
    17:00 +7°C° 0 mm 4 mps 758 mmHg 84%
    18:00 +7°C° 0 mm 4 mps 758 mmHg 84%
    19:00 +7°C° 0.1 mm 4 mps 758 mmHg 85%
    20:00 +6°C° 0.1 mm 4 mps 758 mmHg 85%
    21:00 +6°C° 0.1 mm 4 mps 758 mmHg 85%
    22:00 +6°C° 0 mm 4 mps 759 mmHg 87%
    23:00 +5°C° 0 mm 4 mps 759 mmHg 89%

    20 December, Thursday

    Time Temperature Precipitation Wind Pressure Humidity
    00:00 +5°C° 0 mm 4 mps 759 mmHg 90%
    01:00 +4°C° 0 mm 4 mps 759 mmHg 91%
    02:00 +4°C° 0 mm 4 mps 759 mmHg 92%
    03:00 +4°C° 0 mm 4 mps 759 mmHg 92%
    04:00 +3°C° 0 mm 5 mps 759 mmHg 92%
    05:00 +2°C° 0 mm 5 mps 759 mmHg 93%
    06:00 +2°C° 0 mm 5 mps 760 mmHg 93%
    07:00 +2°C° 0 mm 5 mps 760 mmHg 92%
    08:00 +3°C° 0 mm 5 mps 760 mmHg 91%
    09:00 +3°C° 0 mm 6 mps 760 mmHg 91%
    10:00 +3°C° 0 mm 6 mps 760 mmHg 87%
    11:00 +4°C° 0 mm 7 mps 760 mmHg 84%
    12:00 +5°C° 0 mm 7 mps 760 mmHg 81%
    13:00 +5°C° 0.2 mm 7 mps 759 mmHg 80%
    14:00 +5°C° 0.2 mm 8 mps 759 mmHg 80%
    15:00 +5°C° 0.2 mm 8 mps 759 mmHg 79%
    16:00 +5°C° 0.9 mm 8 mps 759 mmHg 81%
    17:00 +5°C° 0.9 mm 8 mps 758 mmHg 82%
    18:00 +6°C° 0.9 mm 8 mps 758 mmHg 84%
    19:00 +6°C° 0.5 mm 8 mps 758 mmHg 85%
    20:00 +6°C° 0.5 mm 7 mps 758 mmHg 87%
    21:00 +6°C° 0.5 mm 7 mps 758 mmHg 88%
    22:00 +7°C° 0.2 mm 6 mps 758 mmHg 89%
    23:00 +7°C° 0.2 mm 5 mps 758 mmHg 90%

    21 December, Friday

    Time Temperature Precipitation Wind Pressure Humidity
    00:00 +7°C° 0.2 mm 5 mps 758 mmHg 91%
    01:00 +7°C° 0.1 mm 5 mps 758 mmHg 92%
    02:00 +7°C° 0.1 mm 4 mps 757 mmHg 93%
    03:00 +7°C° 0.1 mm 4 mps 757 mmHg 93%
    04:00 +7°C° 0.5 mm 4 mps 756 mmHg 94%
    05:00 +7°C° 0.5 mm 4 mps 756 mmHg 94%
    06:00 +7°C° 0.5 mm 4 mps 755 mmHg 95%
    07:00 +8°C° 2.1 mm 5 mps 754 mmHg 94%
    08:00 +9°C° 2.1 mm 6 mps 754 mmHg 93%
    09:00 +9°C° 2.1 mm 7 mps 753 mmHg 91%
    10:00 +10°C° 1.6 mm 8 mps 752 mmHg 89%
    11:00 +9°C° 1.6 mm 10 mps 751 mmHg 87%
    12:00 +11°C° 1.6 mm 11 mps 751 mmHg 84%
    13:00 +11°C° 0.3 mm 11 mps 751 mmHg 81%
    14:00 +11°C° 0.3 mm 10 mps 752 mmHg 78%
    15:00 +11°C° 0.3 mm 10 mps 752 mmHg 75%
    16:00 +10°C° 0 mm 9 mps 754 mmHg 75%
    17:00 +9°C° 0 mm 8 mps 755 mmHg 75%
    18:00 +8°C° 0 mm 7 mps 756 mmHg 75%
    19:00 +8°C° 0 mm 7 mps 757 mmHg 77%
    20:00 +8°C° 0 mm 7 mps 757 mmHg 80%
    21:00 +8°C° 0 mm 7 mps 758 mmHg 82%
    22:00 +8°C° 0.1 mm 7 mps 758 mmHg 83%
    23:00 +8°C° 0.1 mm 7 mps 758 mmHg 84%

    22 December, Saturday

    Time Temperature Precipitation Wind Pressure Humidity
    00:00 +8°C° 0.1 mm 7 mps 757 mmHg 85%
    01:00 +9°C° 0.6 mm 8 mps 757 mmHg 85%
    02:00 +9°C° 0.6 mm 8 mps 757 mmHg 86%
    03:00 +9°C° 0.6 mm 8 mps 757 mmHg 86%
    04:00 +9°C° 0.2 mm 8 mps 757 mmHg 84%
    05:00 +9°C° 0.2 mm 8 mps 757 mmHg 83%
    06:00 +8°C° 0.2 mm 7 mps 758 mmHg 81%
    07:00 +8°C° 0 mm 7 mps 759 mmHg 80%
    08:00 +8°C° 0 mm 7 mps 759 mmHg 79%
    09:00 +8°C° 0 mm 7 mps 760 mmHg 78%
    10:00 +9°C° 0 mm 7 mps 761 mmHg 76%
    11:00 +9°C° 0 mm 7 mps 761 mmHg 73%
    12:00 +9°C° 0 mm 7 mps 762 mmHg 71%
    13:00 +9°C° 0 mm 6 mps 762 mmHg 73%
    14:00 +9°C° 0 mm 6 mps 762 mmHg 75%
    15:00 +8°C° 0 mm 5 mps 763 mmHg 77%
    16:00 +8°C° 0 mm 4 mps 763 mmHg 82%
    17:00 +8°C° 0 mm 4 mps 763 mmHg 86%
    18:00 +7°C° 0 mm 4 mps 764 mmHg 91%
    19:00 +7°C° 0 mm 4 mps 764 mmHg 92%
    20:00 +8°C° 0 mm 3 mps 764 mmHg 94%
    21:00 +8°C° 0 mm 3 mps 764 mmHg 95%
    22:00 +8°C° 0 mm 3 mps 764 mmHg 95%
    23:00 +8°C° 0 mm 3 mps 764 mmHg 96%
    Show more